Location: Central Falls
(41.8900°N, 71.3929°W)
Time: 12:30:34
(UTC+00:00)

A-11 Canister half - Pass Details

Date: 10 December 2023
Orbit: 1512 x 1687 km, 47.2° (Epoch: 20 February)

Event Time Altitude Azimuth Distance (km) Brightness Sun altitude
Rises 08:01:39 0° 290° (WNW) 4,797 - -43.8°
Reaches altitude 10° 08:04:43 10° 292° (WNW) 3,834 - -43.3°
Maximum altitude 08:14:36 78° 20° (NNE) 1,684 - -41.4°
Exits shadow 08:15:42 71° 72° (ENE) 1,732 9.1 -41.2°
Drops below altitude 10° 08:24:46 10° 107° (ESE) 3,939 11.7 -39.6°
Sets 08:27:58 0° 109° (ESE) 4,934 12.4 -39.0°
